Weather History for CYWG - November, 2013

Change the Weather History Date:

Tuesday, November 5, 2013

  Actual Average Record
Temperature  
Mean Temperature 28 °F -  
Max Temperature 30 °F 35 °F - (-1)
Min Temperature 26 °F 20 °F - (-1)
Degree Days  
Heating Degree Days 37    
Moisture  
Dew Point 18 °F    
Average Humidity 66    
Maximum Humidity 69    
Minimum Humidity 60    
Precipitation  
Precipitation 0.00 in - - ()
Sea Level Pressure  
Sea Level Pressure 30.08 in    
Wind  
Wind Speed 12 mph ()    
Max Wind Speed 20 mph    
Max Gust Speed 25 mph    
Visibility 15.0 miles    
Events      
Averages and records for this station are not official NWS values.
T = Trace of Precipitation, MM = Missing Value Source: Averaged Metar Reports

Daily Weather History Graph

Daily Weather History Graph

Search for Another Location

Airport or City:

Trip Planner

Search our weather history database for the weather conditions in past years. The results will help you decide how hot, cold, wet, or windy it might be!

Date:

Astronomy

Nov. 05, 2013 Rise Set
Actual Time 7:25 AM CST 4:58 PM CST
Civil Twilight 6:51 AM CST 5:33 PM CST
Nautical Twilight 6:12 AM CST 6:11 PM CST
Astronomical Twilight 5:35 AM CST 6:49 PM CST
Moon 9:50 AM CST (11/5) 6:52 PM CST (11/5)
Length of Visible Light 10h 42m
Length of Day
9h 33m
Waxing Crescent, 7% of the Moon is Illuminated
Nov 5
Waxing Crescent
Nov 9
First Quarter
Nov 17
Full
Nov 25
Last Quarter
Dec 2
New

Hourly Weather History & Observations

Time (CST) Temp. Windchill Dew Point Humidity Pressure Visibility Wind Dir Wind Speed Gust Speed Precip Events Conditions
12:00 AM 28.4 °F 17.0 °F 19.4 °F 69% 29.91 in 15.0 mi WSW 15.0 mph - N/A   Overcast
1:00 AM 28.4 °F 17.0 °F 19.4 °F 69% 29.93 in 15.0 mi WSW 15.0 mph - N/A   Scattered Clouds
2:00 AM 26.6 °F 15.7 °F 17.6 °F 69% 29.95 in 15.0 mi WSW 12.7 mph 23.0 mph N/A   Overcast
3:00 AM 28.4 °F 17.5 °F 17.6 °F 64% 29.97 in 15.0 mi WSW 13.8 mph 24.2 mph N/A   Overcast
4:00 AM 26.6 °F 16.2 °F 17.6 °F 69% 29.98 in 15.0 mi WSW 11.5 mph 18.4 mph N/A   Mostly Cloudy
5:00 AM 26.6 °F 15.7 °F 17.6 °F 69% 30.00 in 15.0 mi WSW 12.7 mph 20.7 mph N/A   Mostly Cloudy
6:00 AM 26.6 °F 14.3 °F 17.6 °F 69% 30.02 in 15.0 mi WSW 16.1 mph - N/A   Overcast
7:00 AM 26.6 °F 15.7 °F 17.6 °F 69% 30.03 in 15.0 mi WSW 12.7 mph - N/A   Mostly Cloudy
8:00 AM 26.6 °F 15.7 °F 17.6 °F 69% 30.06 in 15.0 mi WSW 12.7 mph 19.6 mph N/A   Mostly Cloudy
9:00 AM 28.4 °F 17.5 °F 17.6 °F 64% 30.08 in 15.0 mi WSW 13.8 mph 21.9 mph N/A   Overcast
10:00 AM 28.4 °F 15.8 °F 17.6 °F 64% 30.09 in 15.0 mi West 18.4 mph 25.3 mph N/A   Mostly Cloudy
11:00 AM 30.2 °F 18.5 °F 19.4 °F 64% 30.12 in 15.0 mi West 17.3 mph 24.2 mph N/A   Mostly Cloudy
12:00 PM 30.2 °F 17.8 °F 17.6 °F 60% 30.14 in 15.0 mi West 19.6 mph 25.3 mph N/A   Overcast
1:00 PM 30.2 °F 19.8 °F 17.6 °F 60% 30.14 in 15.0 mi West 13.8 mph 20.7 mph N/A   Overcast
2:00 PM 30.2 °F 18.9 °F 17.6 °F 60% 30.14 in 15.0 mi West 16.1 mph - N/A   Overcast
3:00 PM 28.4 °F 16.6 °F 17.6 °F 64% 30.14 in 15.0 mi West 16.1 mph 21.9 mph N/A   Overcast
4:00 PM 30.2 °F 21.3 °F 19.4 °F 64% 30.15 in 15.0 mi West 10.4 mph - N/A   Overcast
5:00 PM 28.4 °F 20.4 °F 19.4 °F 69% 30.15 in 15.0 mi West 8.1 mph - N/A   Overcast
6:00 PM 28.4 °F 23.3 °F 17.6 °F 64% 30.16 in 15.0 mi West 4.6 mph - N/A   Overcast
7:00 PM 28.4 °F 20.4 °F 17.6 °F 64% 30.15 in 15.0 mi West 8.1 mph - N/A   Overcast
8:00 PM 28.4 °F 19.1 °F 17.6 °F 64% 30.14 in 15.0 mi West 10.4 mph - N/A   Overcast
9:00 PM 28.4 °F 19.7 °F 17.6 °F 64% 30.14 in 15.0 mi West 9.2 mph - N/A   Overcast
10:00 PM 26.6 °F 18.2 °F 17.6 °F 69% 30.14 in 15.0 mi West 8.1 mph - N/A   Overcast
11:00 PM 26.6 °F 18.2 °F 17.6 °F 69% 30.15 in 15.0 mi WSW 8.1 mph - N/A   Overcast